Location: Newark
(63.1158°N, 8.1461°E)
Time: 13:28:09
(UTC+00:00)

Envisat - Pass Details

Date: 20 December 2019
Orbit: 764 x 766 km, 98.1° (Epoch: 23 January)

Event Time Altitude Azimuth Distance (km) Brightness Sun altitude
Rises 14:51:30 0° 111° (ESE) 3,237 6.0 -5.6°
Reaches altitude 10° 14:54:08 10° 99° (E) 2,313 5.1 -5.8°
Maximum altitude 14:58:15 26° 45° (NE) 1,497 4.0 -6.1°
Drops below altitude 10° 15:02:24 10° 350° (N) 2,321 5.2 -6.5°
Sets 15:05:02 0° 338° (NNW) 3,250 6.0 -6.7°
